Home > Weather > Camrose > Past weeks

Flag for Canada Past Weather in Camrose, Alberta, Canada — Yesterday and Last 2 Weeks

Now
57 °F

Thunderstorms. Fog.


Feels Like: 55 °F
Forecast: 53 / 65 °F
Wind: 12 mph from Northwest

Location: Edmonton International

Current Time: Jul 30, 2016 at 6:38:26 PM

Latest Report: Jul 30, 2016 at 6:00 PM


Visibility: 5 mi

Pressure: 29.81 "Hg (27.28 "Hg at 744m altitude)

Humidity: 88%

Dew Point: 54 °F

Location of CamroseLocation

Past Weather in Camrose — Graph

°F

Camrose Temperature Yesterday

Maximum temperature yesterday: 82 °F (at 5:00 PM)
Minimum temperature yesterday: 50 °F (at 4:00 AM)
Average temperature yesterday: 65 °F

High & Low Weather Summary for the Past Weeks

 TemperatureHumidityPressure
High82 °F (Jul 29, 5:00 PM)100% (Jul 16, 6:00 AM)30.18 "Hg (Jul 16, 6:00 AM)
Low48 °F (Jul 19, 6:00 AM)32% (Jul 29, 5:00 PM)29.71 "Hg (Jul 30, 3:00 PM)
Average64 °F76%29.97 "Hg
* Reported Jul 15 5:00 PM — Jul 30 5:00 PM, Camrose, Weather by CustomWeather, © 2016

Note: Actual official high and low records may vary slightly from our data, if they occured in-between our weather recording intervals... More about our weather records

Advertising

Camrose Weather History for the Previous 24 Hours

Scroll right to see more
 ConditionsComfort  
Time TempWeatherWind HumidityBarometerVisibility
5:00 PM
Sat, Jul 30
66 °FThunderstorms. Partly sunny.3 mph78%29.73 "Hg15 mi
4:50 PM68 °FThunderstorms. Partly sunny.5 mph69%29.72 "Hg15 mi
4:00 PM72 °FPartly sunny.9 mph57%29.71 "Hg15 mi
3:00 PM73 °FPartly sunny.13 mph53%29.71 "Hg15 mi
2:00 PM73 °FBroken clouds.6 mph61%29.74 "Hg15 mi
1:00 PM70 °FScattered clouds.5 mph69%29.75 "Hg15 mi
12:00 PM70 °FPartly sunny.7 mph69%29.76 "Hg15 mi
11:00 AM66 °FPartly sunny.5 mph78%29.77 "Hg15 mi
10:00 AM61 °FBroken clouds.3 mph88%29.79 "Hg15 mi
9:00 AM59 °FPartly sunny.3 mph94%29.78 "Hg15 mi
8:45 AM59 °FSprinkles. Partly sunny.3 mph94%29.78 "Hg15 mi
8:00 AM59 °FPartly sunny.3 mph94%29.79 "Hg15 mi
7:00 AM57 °FMore clouds than sun.7 mph94%29.80 "Hg15 mi
6:00 AM57 °FPassing clouds.7 mph94%29.78 "Hg15 mi
5:00 AM57 °FSprinkles. Passing clouds.No wind94%29.77 "Hg15 mi
4:47 AM57 °FSprinkles. Partly cloudy.5 mph94%29.77 "Hg15 mi
4:00 AM57 °FPartly cloudy.5 mph94%29.78 "Hg15 mi
3:00 AM57 °FThunderstorms. Partly cloudy.9 mph94%29.79 "Hg15 mi
2:00 AM57 °FStrong thunderstorms. Overcast.9 mph94%29.79 "Hg8 mi
1:00 AM59 °FStrong thunderstorms. Mostly cloudy.17 mph88%29.83 "Hg8 mi
12:45 AM63 °FStrong thunderstorms. Overcast.22 mph77%29.83 "Hg10 mi
12:00 AM64 °FThunderstorms. Overcast.No wind83%29.77 "Hg15 mi
11:50 PM
Fri, Jul 29
64 °FThunderstorms. Mostly cloudy.5 mph83%29.77 "Hg15 mi
11:00 PM66 °FThunderstorms. Mostly cloudy.12 mph83%29.81 "Hg15 mi
10:00 PM64 °FThunderstorms. Broken clouds.9 mph83%29.81 "Hg15 mi
9:00 PM66 °FPartly sunny.9 mph83%29.82 "Hg15 mi
8:00 PM73 °FScattered clouds.7 mph53%29.83 "Hg15 mi
7:00 PM79 °FPassing clouds.8 mph48%29.85 "Hg15 mi
6:00 PM82 °FPassing clouds.2 mph35%29.87 "Hg15 mi
Weather by CustomWeather, © 2016

See weather overviewHow to use our weather pages